Date,TemperatureHighF,TemperatureAvgF,TemperatureLowF,DewpointHighF,DewpointAvgF,DewpointLowF,HumidityHigh,HumidityAvg,HumidityLow,PressureMaxIn,PressureMinIn,WindSpeedMaxMPH,WindSpeedAvgMPH,GustSpeedMaxMPH,PrecipitationSumIn
2013-1-1,43,40,35,43,38,31,98,96,83,30.12,29.92,7,0,10,0.54
2013-1-2,42,36,34,42,35,32,100,95,91,30.15,29.94,7,0,7,0.09
2013-1-3,40,35,30,34,30,24,94,84,64,30.31,30.12,7,0,9,0.00
2013-1-4,36,31,25,27,24,21,88,75,65,30.40,30.31,16,1,16,0.00
2013-1-5,45,33,23,33,26,20,92,75,49,30.42,30.24,5,0,6,0.02
2013-1-6,41,38,34,37,35,30,97,89,78,30.26,30.09,12,2,13,0.04
2013-1-7,47,37,28,34,29,25,87,74,55,30.42,30.25,6,0,6,0.00
2013-1-8,54,40,28,34,29,24,89,67,38,30.41,30.28,4,0,4,0.00
2013-1-9,49,43,36,47,39,30,96,86,69,30.46,30.29,6,0,7,0.03
2013-1-10,61,52,45,53,48,44,97,86,72,30.47,30.17,6,0,7,0.00
2013-1-11,61,57,54,59,54,47,97,89,73,30.18,29.99,10,0,13,0.10
2013-1-12,70,62,57,64,60,56,98,93,79,30.09,29.93,7,0,7,0.02
2013-1-13,71,61,53,60,56,51,96,83,63,30.00,29.88,11,0,14,0.30
2013-1-14,59,48,38,58,47,37,98,97,96,30.23,29.94,7,0,8,1.45
2013-1-15,47,42,38,47,41,38,99,98,97,30.16,29.92,4,0,5,1.52
2013-1-16,51,48,44,51,48,43,99,98,97,30.01,29.85,9,0,10,0.91
2013-1-17,44,38,30,43,37,28,100,96,89,30.30,29.91,10,1,10,0.24
2013-1-18,37,31,24,34,29,23,98,92,81,30.54,30.29,2,0,3,0.48
2013-1-19,44,33,22,36,28,21,98,86,58,30.44,30.16,6,0,7,0.23
2013-1-20,49,41,32,36,32,24,90,70,54,30.17,30.08,16,2,16,0.03
2013-1-21,42,35,26,29,23,12,92,62,42,30.13,30.01,24,4,27,0.00
2013-1-22,28,22,18,12,5,1,57,47,34,30.30,30.11,19,4,23,0.00
2013-1-23,39,30,23,28,14,2,67,52,39,30.37,30.06,16,2,20,0.00
2013-1-24,40,30,20,32,16,5,73,57,37,30.43,30.05,27,3,27,0.00
2013-1-25,33,28,20,32,23,8,97,84,58,30.37,30.09,10,1,10,0.15
2013-1-26,36,32,28,33,30,26,97,92,85,30.38,30.16,9,1,9,0.08
2013-1-27,45,35,24,38,31,23,100,86,67,30.45,30.30,6,0,9,0.06
2013-1-28,60,46,36,49,41,33,96,84,63,30.35,30.18,11,0,12,0.14
2013-1-29,70,56,43,55,50,42,98,83,52,30.20,29.85,6,0,6,0.00
2013-1-30,65,56,42,60,53,38,100,89,75,29.85,29.39,27,2,30,1.99
2013-1-31,42,34,31,39,26,22,92,74,55,29.97,29.49,32,5,32,0.03
2013-2-1,38,24,16,31,15,7,92,68,52,30.39,29.90,29,4,32,0.00
2013-2-2,31,24,17,30,21,12,95,86,63,30.38,30.06,15,1,16,0.00
2013-2-3,36,32,29,32,29,22,95,88,72,30.13,29.94,19,4,23,0.13
2013-2-4,40,32,22,30,25,18,92,76,55,30.13,29.95,7,0,11,0.11
2013-2-5,50,42,34,41,35,29,86,78,66,29.98,29.91,13,1,13,0.01
2013-2-6,55,44,37,38,32,28,82,64,40,30.17,29.97,10,1,11,0.00
2013-2-7,55,44,35,42,35,29,88,73,55,30.16,29.91,7,0,10,0.00
2013-2-8,52,42,35,46,37,28,98,82,50,30.22,29.85,21,2,21,0.05
2013-2-9,50,37,27,29,25,22,85,63,36,30.34,30.20,7,0,7,0.00
2013-2-10,60,44,34,42,31,24,94,63,29,30.26,29.97,11,0,13,0.17
2013-2-11,55,50,44,52,45,31,97,84,57,30.06,29.92,15,2,15,0.06
2013-2-12,51,44,37,38,30,26,84,58,41,30.13,29.84,11,0,11,0.01
2013-2-13,45,41,36,43,38,32,100,91,83,29.92,29.60,17,2,19,0.24
2013-2-14,49,39,32,36,31,26,92,75,56,30.05,29.92,12,1,12,0.00
2013-2-15,53,39,30,40,34,28,95,84,57,30.07,29.93,20,2,22,0.04
2013-2-16,34,30,25,33,23,12,100,76,49,30.03,29.91,16,2,22,0.00
2013-2-17,35,27,22,16,13,9,68,54,40,30.25,30.03,20,4,28,0.00
2013-2-18,57,38,20,36,23,11,81,57,41,30.32,29.98,16,1,16,0.00
2013-2-19,48,41,34,42,30,17,96,69,39,30.08,29.85,28,4,28,0.17
2013-2-20,40,32,27,20,17,12,69,53,33,30.20,30.07,16,2,18,0.00
2013-2-21,50,36,23,38,22,15,94,58,30,30.25,30.04,9,0,10,0.22
2013-2-22,57,47,40,47,42,38,100,84,65,30.13,29.94,7,0,10,0.25
2013-2-23,56,47,41,49,44,40,100,90,73,29.97,29.78,7,0,7,0.09
2013-2-24,53,43,36,45,31,24,95,63,36,30.04,29.82,14,2,15,0.00
2013-2-25,57,42,31,38,30,23,79,64,44,30.05,29.86,10,1,10,0.00
2013-2-26,58,46,40,49,40,32,96,81,66,29.88,29.38,22,2,24,0.27
2013-2-27,45,40,36,37,34,32,90,82,68,29.77,29.59,22,4,22,0.01
2013-2-28,37,34,32,33,28,26,96,79,69,29.94,29.72,20,5,22,0.02
2013-3-1,39,35,32,36,32,29,93,88,79,29.94,29.88,12,2,20,0.01
2013-3-2,37,32,28,34,28,20,96,84,70,30.00,29.86,12,1,12,0.08
2013-3-3,31,28,24,24,20,17,91,74,63,30.08,29.98,18,2,18,0.01
2013-3-4,48,35,23,28,22,18,82,59,39,30.18,30.01,9,1,10,0.00
2013-3-5,48,40,33,48,36,24,100,86,55,30.02,29.57,30,2,30,1.29
2013-3-6,33,30,28,30,26,23,94,86,77,30.22,29.72,29,5,29,0.05
2013-3-7,35,32,30,30,28,26,89,84,76,30.34,30.20,5,0,7,0.05
2013-3-8,49,37,27,33,28,23,92,72,49,30.40,30.29,9,0,10,0.00
2013-3-9,66,46,29,40,31,25,92,59,27,30.33,30.13,7,0,9,0.00
2013-3-10,71,57,46,42,36,31,62,47,30,30.16,29.96,10,0,10,0.00
2013-3-11,60,54,50,51,46,36,97,76,50,29.98,29.70,18,1,18,0.52
2013-3-12,51,43,37,50,38,32,100,83,61,30.02,29.73,17,2,18,0.13
2013-3-13,40,36,30,33,26,17,90,67,48,30.26,30.00,23,4,27,0.01
2013-3-14,44,34,25,26,20,16,75,57,43,30.35,30.20,13,2,15,0.00
2013-3-15,61,46,31,44,33,21,82,61,46,30.22,29.86,15,2,16,0.00
2013-3-16,71,63,53,52,49,44,76,59,49,29.87,29.67,22,5,26,0.01
2013-3-17,63,56,47,55,50,45,94,82,67,29.90,29.78,7,0,9,0.01
2013-3-18,61,50,42,51,46,40,100,89,64,29.87,29.72,10,0,10,0.63
2013-3-19,54,46,38,49,31,14,100,60,25,30.06,29.76,27,4,30,0.21
2013-3-20,51,40,30,30,19,12,75,43,28,30.08,29.80,21,3,25,0.00
2013-3-21,37,28,22,18,13,10,66,53,39,30.02,29.85,20,3,20,0.00
2013-3-22,44,32,19,25,18,12,85,56,35,30.09,29.99,10,1,12,0.00
2013-3-23,53,44,38,41,33,22,79,66,51,30.03,29.77,5,0,5,0.00
2013-3-24,54,46,41,49,43,37,97,89,78,29.80,29.32,21,2,23,0.73
2013-3-25,43,33,30,41,30,27,93,87,78,29.93,29.45,29,7,30,0.06
2013-3-26,37,33,30,31,28,27,91,85,74,30.23,29.93,17,4,17,0.03
2013-3-27,42,34,31,31,26,22,95,73,54,30.31,30.21,13,2,14,0.00
2013-3-28,51,38,27,32,26,22,83,62,40,30.33,30.23,16,1,16,0.00
2013-3-29,50,40,28,39,31,23,94,72,40,30.31,30.22,16,2,18,0.00
2013-3-30,59,47,38,45,40,36,96,79,54,30.23,29.96,13,1,14,0.00
2013-3-31,58,51,46,54,49,41,98,92,68,29.97,29.78,14,1,17,0.58
2013-4-1,58,50,43,50,44,34,100,79,49,30.00,29.83,24,3,27,0.01
2013-4-2,53,43,34,34,26,20,78,53,30,30.16,29.99,14,1,15,0.00
2013-4-3,55,45,32,29,23,18,65,43,29,30.27,30.15,8,1,9,0.00
2013-4-4,44,39,37,37,30,19,96,74,40,30.20,29.94,8,1,9,0.92
2013-4-5,58,46,37,46,40,36,97,82,55,30.06,29.93,13,1,13,0.01
2013-4-6,71,54,38,46,39,34,94,60,29,30.16,30.01,9,0,11,0.00
2013-4-7,71,59,47,49,42,35,69,53,41,30.09,29.97,20,2,20,0.00
2013-4-8,76,63,50,56,50,44,85,63,44,30.04,29.92,14,1,16,0.00
2013-4-9,81,69,51,60,55,48,91,64,41,30.11,29.95,14,1,17,0.00
2013-4-10,83,71,58,62,58,53,87,65,45,30.02,29.79,16,1,17,0.00
2013-4-11,82,70,61,62,57,52,95,65,37,29.81,29.56,18,1,20,0.42
2013-4-12,62,58,50,60,50,39,98,77,54,29.86,29.47,15,1,20,0.48
2013-4-13,68,56,45,46,40,35,81,58,35,29.99,29.85,20,2,20,0.00
2013-4-14,75,60,43,52,44,34,92,58,32,30.01,29.87,12,0,12,0.05
2013-4-15,77,62,53,61,54,51,96,79,50,30.05,29.87,11,0,11,0.01
2013-4-16,81,68,54,62,57,51,94,71,47,30.17,30.03,12,1,13,0.00
2013-4-17,69,62,59,63,59,57,98,91,71,30.21,30.00,11,0,11,1.05
2013-4-18,79,68,56,67,58,55,98,75,45,30.00,29.75,13,1,16,0.00
2013-4-19,70,59,45,63,53,35,96,81,66,29.95,29.56,20,2,20,0.32
2013-4-20,59,47,36,39,33,29,82,60,35,30.26,29.95,17,2,18,0.00
2013-4-21,65,51,39,44,36,29,79,58,36,30.37,30.23,9,0,10,0.00
2013-4-22,68,55,42,49,40,36,84,61,33,30.31,30.10,10,0,11,0.00
2013-4-23,74,57,41,51,41,31,77,56,28,30.18,29.97,8,0,9,0.00
2013-4-24,71,59,46,60,51,44,96,78,55,30.12,29.88,22,2,23,0.24
2013-4-25,63,51,39,46,39,32,92,66,38,30.30,30.12,10,1,12,0.00
2013-4-26,68,54,38,45,37,31,90,54,33,30.38,30.24,5,0,7,0.00
2013-4-27,59,55,51,55,50,41,95,83,56,30.30,30.09,5,0,6,0.14
2013-4-28,57,53,49,55,52,48,99,95,88,30.11,29.88,10,0,14,0.82
2013-4-29,71,60,50,60,55,49,98,84,59,29.99,29.89,10,0,10,0.00
2013-4-30,80,65,51,63,56,50,98,75,44,30.04,29.90,6,0,6,0.00
2013-5-1,72,63,54,60,55,52,95,75,54,30.15,30.03,13,1,13,0.00
2013-5-2,76,63,54,62,55,50,92,75,49,30.17,30.07,10,1,10,0.00
2013-5-3,69,60,51,56,50,44,92,73,50,30.12,29.97,10,1,11,0.00
2013-5-4,64,57,49,53,46,36,90,68,59,29.98,29.86,12,2,12,0.03
2013-5-5,59,53,50,54,50,47,95,87,77,29.91,29.73,19,2,19,0.21
2013-5-6,72,59,51,60,53,46,98,81,44,29.77,29.69,11,1,12,0.58
2013-5-7,63,58,54,57,54,51,96,89,70,29.89,29.83,10,0,10,0.23
2013-5-8,67,58,53,59,56,52,98,91,72,29.99,29.85,13,1,14,0.05
2013-5-9,77,63,52,63,57,51,99,83,52,30.06,29.95,10,1,12,0.00
2013-5-10,75,62,53,65,58,51,98,86,62,30.01,29.91,13,1,14,0.00
2013-5-11,70,63,56,63,59,51,97,85,75,29.88,29.75,5,1,15,0.14
2013-5-12,61,54,45,51,40,34,92,62,41,30.05,29.86,15,2,19,0.00
2013-5-13,63,52,39,38,35,32,86,55,34,30.16,30.04,22,2,24,0.00
2013-5-14,74,58,39,56,45,34,89,63,44,30.19,29.96,16,1,16,0.00
2013-5-15,82,72,61,62,58,54,80,63,46,30.05,29.87,18,2,18,0.00
2013-5-16,77,69,61,64,58,54,90,69,55,29.96,29.88,13,1,13,0.03
2013-5-17,84,66,55,68,60,54,97,84,53,30.03,29.92,16,0,16,0.14
2013-5-18,73,64,59,68,63,58,99,95,78,30.01,29.94,11,0,11,0.88
2013-5-19,78,69,63,71,66,62,99,90,70,30.00,29.89,11,0,12,0.03
2013-5-20,82,70,62,70,65,61,98,85,63,30.04,29.91,5,0,7,0.06
2013-5-21,87,72,62,74,66,60,99,83,52,29.97,29.81,17,0,19,0.09
2013-5-22,83,67,60,72,64,59,99,90,61,29.89,29.75,16,0,18,1.28
2013-5-23,77,66,60,66,62,55,99,87,63,29.90,29.78,14,1,16,0.46
2013-5-24,66,59,49,55,48,39,91,69,40,30.20,29.89,13,1,13,0.00
2013-5-25,71,57,43,52,44,37,93,64,35,30.32,30.14,13,0,13,0.00
2013-5-26,73,62,51,56,50,44,91,66,46,30.23,30.11,12,0,12,0.01
2013-5-27,81,67,51,66,58,49,96,74,49,30.17,30.00,12,1,14,0.07
2013-5-28,84,72,59,69,62,57,95,74,50,30.11,29.98,13,1,15,0.01
2013-5-29,88,74,60,70,63,56,94,70,46,30.12,30.00,7,0,10,0.00
2013-5-30,88,74,60,70,63,58,92,71,46,30.15,29.99,5,0,7,0.00
2013-5-31,88,75,60,69,63,57,92,69,44,30.08,29.95,10,0,11,0.00
2013-6-1,88,77,64,70,65,60,92,68,49,29.99,29.83,9,1,11,0.00
2013-6-2,73,68,65,68,66,64,97,93,75,29.89,29.79,7,0,7,0.52
2013-6-3,80,70,65,68,64,59,98,83,55,29.92,29.80,12,1,14,0.03
2013-6-4,83,71,59,68,62,57,96,76,52,29.97,29.90,6,0,6,0.00
2013-6-5,87,70,60,71,65,58,97,83,51,29.98,29.82,6,0,9,0.58
2013-6-6,80,70,63,71,66,62,99,88,69,29.89,29.67,10,0,11,0.01
2013-6-7,80,71,64,71,67,62,96,87,63,29.76,29.61,5,0,6,0.09
2013-6-8,81,69,61,68,64,60,99,85,59,30.00,29.76,9,0,9,0.33
2013-6-9,84,71,61,73,66,59,97,87,61,30.06,29.90,5,0,7,0.36
2013-6-10,78,70,66,70,66,62,98,87,67,29.92,29.78,15,1,18,0.22
2013-6-11,80,71,63,69,65,62,98,83,59,29.95,29.84,13,1,13,0.16
2013-6-12,89,77,66,78,71,64,96,81,64,29.95,29.80,12,1,13,0.00
2013-6-13,81,73,65,74,69,60,95,87,77,29.81,29.62,19,1,19,0.42
2013-6-14,80,68,58,65,60,56,96,77,49,29.99,29.78,11,0,11,0.00
2013-6-15,82,68,55,67,60,54,97,77,50,30.08,29.96,9,0,11,0.00
2013-6-16,83,72,64,71,66,61,95,80,61,30.04,29.91,11,1,11,0.00
2013-6-17,81,72,65,73,68,64,98,89,69,29.97,29.84,11,0,18,0.45
2013-6-18,72,68,64,69,66,62,98,94,80,29.89,29.76,10,0,10,0.91
2013-6-19,83,68,59,71,64,58,99,88,59,30.03,29.87,4,0,5,0.00
2013-6-20,85,72,62,72,66,60,98,82,56,30.11,30.01,5,0,9,0.00
2013-6-21,87,74,63,72,66,62,96,80,52,30.16,30.05,7,0,8,0.26
2013-6-22,87,73,61,69,64,59,99,76,41,30.16,30.01,5,0,5,0.00
2013-6-23,88,74,62,72,65,60,96,75,49,30.13,30.01,6,0,7,0.00
2013-6-24,85,75,65,73,68,63,95,80,63,30.13,29.99,8,0,9,0.00
2013-6-25,82,73,67,74,69,65,97,89,73,30.07,29.92,14,0,17,0.35
2013-6-26,82,72,66,75,69,65,99,91,75,29.95,29.81,10,1,11,0.00
2013-6-27,82,71,64,75,69,63,98,93,79,29.86,29.69,13,1,23,0.83
2013-6-28,81,73,68,74,70,65,98,90,73,29.74,29.55,19,1,21,0.09
2013-6-29,83,73,66,70,66,62,98,80,53,29.62,29.55,12,1,13,0.00
2013-6-30,87,72,61,71,64,59,97,78,48,29.72,29.60,8,0,10,0.15
2013-7-1,86,72,65,74,67,64,99,87,60,29.83,29.69,11,0,11,0.07
2013-7-2,86,72,64,73,67,64,99,87,57,30.00,29.82,15,0,16,0.05
2013-7-3,74,68,63,72,66,62,98,96,90,30.13,29.98,5,0,6,0.96
2013-7-4,82,69,63,77,68,62,99,95,77,30.15,30.04,4,0,6,0.33
2013-7-5,84,73,66,74,69,65,99,87,64,30.11,30.04,6,0,7,0.06
2013-7-6,88,74,67,77,69,66,99,86,61,30.09,29.96,6,0,11,0.13
2013-7-7,73,69,67,72,68,65,99,96,91,30.09,29.99,9,0,11,0.12
2013-7-8,86,73,64,74,68,64,99,86,52,30.14,30.03,8,0,10,0.00
2013-7-9,88,76,64,75,69,64,98,82,59,30.09,29.97,7,0,7,0.00
2013-7-10,84,75,69,77,71,67,97,88,72,30.00,29.84,6,0,9,0.16
2013-7-11,83,73,68,74,70,66,98,90,68,29.89,29.79,6,0,9,0.00
2013-7-12,84,73,64,72,67,62,99,83,55,29.91,29.82,6,0,7,0.01
2013-7-13,86,72,62,72,66,61,98,82,58,30.02,29.90,9,0,9,0.00
2013-7-14,87,75,68,75,70,66,98,84,61,30.17,30.00,10,0,11,0.06
2013-7-15,90,77,66,76,70,64,97,79,53,30.23,30.14,5,0,7,0.00
2013-7-16,93,78,65,76,70,64,97,76,49,30.26,30.15,4,0,4,0.00
2013-7-17,91,75,67,79,71,66,98,87,61,30.21,30.06,22,0,22,1.16
2013-7-18,92,74,67,80,71,66,99,89,56,30.15,29.98,9,0,9,0.00
2013-7-19,88,76,66,77,72,66,99,87,65,30.04,29.88,9,0,11,0.01
2013-7-20,86,74,67,78,71,66,98,90,68,29.95,29.83,10,0,12,0.07
2013-7-21,81,72,68,75,70,66,98,93,78,29.93,29.84,10,0,10,0.12
2013-7-22,82,73,66,74,70,66,99,89,72,29.91,29.73,11,1,13,0.10
2013-7-23,83,74,68,74,70,66,97,89,68,29.82,29.71,10,1,12,0.00
2013-7-24,83,75,68,74,70,65,99,86,66,29.81,29.71,9,0,11,0.00
2013-7-25,85,72,63,71,64,59,97,78,52,29.98,29.79,5,0,6,0.00
2013-7-26,86,72,58,73,64,57,98,80,54,30.00,29.90,9,0,10,0.08
2013-7-27,82,72,67,72,68,66,99,89,62,29.93,29.80,7,0,8,0.00
2013-7-28,81,71,64,69,65,59,98,82,58,29.98,29.81,12,1,16,0.00
2013-7-29,82,68,57,66,59,55,96,74,46,30.14,29.97,10,0,11,0.00
2013-7-30,80,68,57,68,62,56,98,82,54,30.16,30.07,6,0,9,0.00
2013-7-31,70,67,63,70,66,61,98,96,89,30.11,29.91,2,0,3,0.35
2013-8-1,83,72,66,73,68,64,99,89,63,29.92,29.84,5,0,9,0.05
2013-8-2,84,72,63,70,65,61,99,81,54,29.98,29.88,5,0,5,0.00
2013-8-3,82,72,63,72,67,61,97,84,67,29.96,29.89,11,1,11,0.00
2013-8-4,84,74,66,70,66,62,97,80,50,29.98,29.89,10,0,13,0.03
2013-8-5,84,72,60,69,63,59,97,77,52,29.99,29.88,11,0,13,0.00
2013-8-6,85,74,65,73,66,61,94,79,57,29.94,29.85,7,0,9,0.00
2013-8-7,80,74,69,74,70,67,96,90,75,29.94,29.88,9,0,9,0.30
2013-8-8,81,74,68,75,71,67,98,91,79,29.95,29.89,9,0,9,0.00
2013-8-9,88,76,68,77,72,67,98,86,67,29.99,29.88,10,0,13,0.00
2013-8-10,85,73,69,77,71,68,99,94,70,30.03,29.96,16,0,16,1.31
2013-8-11,85,73,68,75,71,68,99,92,71,30.08,29.97,8,0,13,0.00
2013-8-12,83,73,68,75,71,67,99,92,76,30.03,29.89,9,0,9,0.11
2013-8-13,77,72,66,73,70,64,99,94,83,29.90,29.77,13,1,13,0.84
2013-8-14,76,67,58,65,60,54,95,80,55,30.02,29.84,6,0,7,0.01
2013-8-15,81,66,54,68,59,52,95,82,58,30.04,29.96,6,0,6,0.00
2013-8-16,83,68,56,68,61,55,98,80,53,30.05,29.97,6,0,7,0.00
2013-8-17,75,67,57,67,62,56,98,86,67,30.09,30.01,5,0,5,0.00
2013-8-18,80,69,63,70,66,62,98,90,67,30.11,30.03,10,0,12,0.01
2013-8-19,81,69,65,72,67,64,99,93,70,30.10,29.99,4,0,6,0.01
2013-8-20,85,74,65,74,69,65,99,86,61,30.10,30.00,3,0,4,0.00
2013-8-21,81,72,66,74,69,65,99,91,73,30.13,30.03,6,0,6,0.01
2013-8-22,86,74,65,73,69,65,99,86,62,30.10,29.95,7,0,8,0.00
2013-8-23,84,72,65,74,68,64,99,90,68,30.02,29.92,6,0,8,0.00
2013-8-24,87,72,62,70,65,58,98,80,45,30.20,30.02,4,0,6,0.00
2013-8-25,84,68,55,66,58,50,99,74,34,30.30,30.17,5,0,5,0.00
2013-8-26,84,69,57,69,63,56,98,82,56,30.24,30.06,7,0,7,0.00
2013-8-27,84,72,63,73,68,62,97,85,66,30.09,29.95,7,0,10,0.00
2013-8-28,87,76,68,74,70,67,97,83,61,29.98,29.87,11,1,11,0.00
2013-8-29,90,79,71,75,71,68,93,79,56,29.91,29.83,10,0,11,0.00
2013-8-30,89,77,67,74,69,66,98,80,52,29.92,29.81,9,0,10,0.00
2013-8-31,87,74,68,76,71,67,97,89,63,29.87,29.77,11,0,11,0.00
2013-9-1,83,72,66,74,69,65,99,91,67,29.83,29.74,13,0,15,0.18
2013-9-2,83,73,68,74,70,67,98,89,71,29.86,29.75,10,0,10,0.00
2013-9-3,82,70,63,73,66,61,99,88,59,29.95,29.76,12,0,13,0.78
2013-9-4,84,69,58,68,62,57,99,82,49,30.06,29.94,6,0,6,0.01
2013-9-5,83,68,57,68,62,56,100,82,54,30.10,30.03,4,0,5,0.00
2013-9-6,86,70,57,69,63,56,99,80,50,30.12,29.99,5,0,6,0.00
2013-9-7,84,70,58,69,64,58,99,83,56,30.04,29.92,9,0,9,0.00
2013-9-8,85,72,62,72,66,62,99,85,53,29.94,29.88,6,0,7,0.00
2013-9-9,89,74,63,74,67,62,99,81,50,30.05,29.94,7,0,10,0.00
2013-9-10,90,73,64,75,67,63,98,84,53,30.15,30.03,2,0,5,4.04
2013-9-11,87,75,68,74,70,66,98,83,58,30.14,30.00,9,0,10,0.00
2013-9-12,82,71,65,74,68,63,99,91,74,30.01,29.80,16,0,16,0.52
2013-9-13,75,67,56,65,59,51,99,79,45,29.92,29.79,7,0,9,0.01
2013-9-14,76,60,47,56,51,45,96,74,40,30.05,29.91,6,0,6,0.00
2013-9-15,81,64,51,63,57,50,99,79,48,30.13,30.03,9,0,11,4.09
2013-9-16,75,66,58,66,62,57,98,86,69,30.13,30.05,7,0,7,8.18
2013-9-17,78,65,55,64,58,53,94,80,57,30.18,30.09,6,0,8,0.00
2013-9-18,67,61,55,62,58,53,98,91,75,30.16,30.09,2,0,2,0.19
2013-9-19,79,67,62,69,64,62,99,91,70,30.12,29.99,7,0,7,0.01
2013-9-20,82,70,60,70,65,59,99,86,61,30.01,29.82,6,0,7,0.00
2013-9-21,67,64,61,66,63,60,100,96,93,29.82,29.65,4,0,4,0.75
2013-9-22,74,61,53,61,56,51,99,84,52,29.89,29.74,5,0,6,0.01
2013-9-23,77,62,50,64,56,49,100,83,56,29.98,29.89,7,0,7,0.00
2013-9-24,80,64,53,64,58,52,99,83,52,30.00,29.82,0,0,0,0.01
2013-9-25,68,63,60,66,61,58,97,94,90,29.83,29.76,0,0,0,0.17
2013-9-26,78,65,58,64,60,55,98,85,56,29.98,29.81,0,0,0,0.02
2013-9-27,80,64,53,64,57,52,98,80,47,30.09,29.98,0,0,0,0.00
2013-9-28,76,62,52,62,56,51,98,83,56,30.17,30.05,0,0,0,0.00
2013-9-29,72,60,53,62,56,51,97,88,67,30.08,29.95,9,0,9,0.00
2013-9-30,76,64,57,64,59,55,98,85,61,30.02,29.92,6,0,6,0.00
2013-10-1,78,63,54,64,58,53,100,86,56,30.09,29.99,6,0,7,0.00
2013-10-2,82,66,54,66,60,53,99,83,52,30.12,30.01,5,0,6,4.21
2013-10-3,82,67,58,67,61,56,98,82,55,30.08,29.99,5,0,7,0.00
2013-10-4,84,68,58,67,62,57,99,82,55,30.11,30.01,9,0,9,0.00
2013-10-5,87,70,58,70,63,57,98,81,51,30.08,29.93,5,0,6,0.00
2013-10-6,84,70,59,67,62,58,98,77,50,29.94,29.74,9,0,9,8.42
2013-10-7,69,59,51,64,53,46,97,81,54,30.03,29.72,11,1,12,0.36
2013-10-8,74,57,45,56,48,42,94,76,46,30.12,30.03,5,0,10,0.00
2013-10-9,77,58,47,57,49,44,92,75,45,30.17,30.06,6,0,7,4.24
2013-10-10,74,55,44,58,48,42,96,79,51,30.10,29.99,1,0,9,4.24
2013-10-11,77,62,49,60,54,48,97,77,47,30.03,29.91,8,0,8,0.00
2013-10-12,73,64,59,63,58,54,96,83,67,30.05,29.93,7,0,7,0.00
2013-10-13,74,64,59,65,61,58,98,90,71,30.15,30.05,3,0,3,0.01
2013-10-14,78,65,57,64,60,56,97,84,57,30.17,30.04,7,0,8,0.00
2013-10-15,76,63,53,63,57,52,98,83,59,30.09,29.95,4,0,6,0.00
2013-10-16,67,62,57,60,58,54,94,87,78,29.98,29.89,6,0,6,0.01
2013-10-17,65,60,54,64,59,50,98,95,87,29.93,29.76,10,0,13,0.18
2013-10-18,64,53,43,52,47,42,98,83,57,30.03,29.91,4,0,5,0.00
2013-10-19,63,54,48,53,49,44,99,85,65,29.96,29.82,14,1,15,0.00
2013-10-20,66,50,36,45,39,33,100,69,37,30.07,29.96,4,0,4,4.26
2013-10-21,68,51,38,51,43,34,98,76,42,30.10,29.96,12,0,14,0.00
2013-10-22,65,56,51,53,50,45,91,79,63,29.96,29.76,9,0,14,0.00
2013-10-23,52,46,36,50,40,32,94,82,67,30.04,29.70,21,2,22,0.00
2013-10-24,51,41,32,39,35,30,93,81,59,30.20,30.03,16,1,18,0.01
2013-10-25,48,37,31,36,30,26,90,76,50,30.42,30.19,10,0,11,0.00
2013-10-26,54,39,24,36,29,23,96,70,38,30.35,30.08,13,1,17,0.01
2013-10-27,65,54,46,49,42,34,78,63,50,30.11,30.01,14,1,15,0.00
2013-10-28,64,57,53,56,52,48,96,84,71,30.21,30.06,7,0,8,0.02
2013-10-29,69,59,53,56,53,50,96,81,54,30.29,30.17,7,0,10,0.00
2013-10-30,76,62,54,60,55,50,95,78,54,30.22,30.07,11,1,12,0.01
2013-10-31,69,63,56,59,55,53,94,76,60,30.08,29.59,12,1,13,0.00
2013-11-1,71,64,53,62,55,45,97,75,47,29.70,29.56,19,1,19,0.42
2013-11-2,60,52,46,47,41,36,88,69,45,30.00,29.69,18,1,22,0.00
2013-11-3,56,44,37,41,37,33,95,77,53,30.32,30.00,4,0,5,0.00
2013-11-4,62,46,33,40,35,30,93,68,37,30.44,30.31,7,0,7,0.00
2013-11-5,66,50,40,41,36,31,78,59,37,30.44,30.31,6,0,7,0.00
2013-11-6,74,56,42,56,48,35,95,75,49,30.32,30.01,10,0,13,0.00
2013-11-7,58,50,37,55,44,30,100,80,55,30.20,29.93,10,0,13,0.22
2013-11-8,53,41,33,32,28,25,85,63,36,30.35,30.19,8,0,11,0.00
2013-11-9,54,41,29,38,31,26,90,70,42,30.30,30.19,9,0,10,0.00
2013-11-10,62,49,38,42,34,26,82,58,32,30.26,30.16,20,1,20,0.00
2013-11-11,63,45,30,34,28,19,87,54,21,30.30,30.12,9,0,10,0.00
2013-11-12,51,38,25,41,28,16,85,67,46,30.53,30.06,10,0,10,0.02
2013-11-13,42,29,20,24,20,16,87,70,43,30.64,30.47,6,0,9,4.34
2013-11-14,56,36,22,32,22,19,92,63,28,30.50,30.28,8,0,8,0.00
2013-11-15,51,39,28,44,32,19,97,76,50,30.30,30.15,2,0,3,0.17
2013-11-16,69,52,44,58,49,43,98,89,61,30.19,30.05,3,0,3,0.00
2013-11-17,69,57,49,60,55,48,98,92,65,30.07,29.76,6,0,6,0.34
2013-11-18,61,54,42,60,45,30,97,72,40,30.06,29.76,18,1,18,0.35
2013-11-19,50,40,33,33,29,26,81,65,45,30.22,30.06,5,0,6,0.00
2013-11-20,56,42,33,35,30,27,81,64,40,30.34,30.18,7,0,9,0.00
2013-11-21,68,49,34,53,42,30,93,79,54,30.39,30.25,9,0,9,0.00
2013-11-22,57,54,49,55,52,48,98,95,88,30.28,30.11,7,0,9,0.15
2013-11-23,53,44,30,53,38,20,98,80,55,30.31,30.11,13,1,14,0.01
2013-11-24,34,25,20,20,12,8,71,59,37,30.55,30.30,8,0,10,0.00
2013-11-25,37,29,20,30,18,10,92,64,47,30.51,30.19,3,0,3,0.03
2013-11-26,45,40,32,44,39,30,98,97,92,30.20,29.67,3,0,4,2.43
2013-11-27,41,30,25,40,27,19,98,90,77,30.26,29.70,10,1,12,0.11
2013-11-28,37,26,17,28,20,14,91,79,61,30.51,30.26,4,0,4,0.08
2013-11-29,46,32,21,32,25,19,96,78,51,30.61,30.50,3,0,3,0.00
2013-11-30,52,37,27,36,29,23,88,74,49,30.53,30.29,4,0,4,0.00
2013-12-1,54,38,26,38,31,24,92,77,53,30.29,29.99,6,0,6,0.00
2013-12-2,49,44,40,43,39,33,92,82,75,29.99,29.78,4,0,4,0.01
2013-12-3,60,49,43,51,45,40,95,86,68,29.87,29.79,3,0,3,0.01
2013-12-4,69,55,46,55,50,44,95,82,58,29.95,29.83,7,0,7,0.00
2013-12-5,70,61,53,61,56,50,96,85,68,29.98,29.85,6,0,10,0.08
2013-12-6,62,53,40,62,52,40,98,97,95,30.08,29.79,16,0,19,1.12
2013-12-7,40,36,33,40,35,31,97,94,88,30.39,30.07,6,0,6,0.02
2013-12-8,47,40,34,45,39,32,98,95,88,30.34,30.04,5,0,10,0.31
2013-12-9,48,44,40,47,44,40,98,98,96,30.11,29.97,7,0,8,0.44
2013-12-10,43,36,26,42,34,22,98,90,72,30.33,29.92,22,1,22,0.42
2013-12-11,44,31,21,33,24,19,96,77,43,30.45,30.31,9,0,9,4.95
2013-12-12,35,29,24,24,20,15,85,69,47,30.48,30.37,10,0,12,4.95
2013-12-13,47,32,21,29,21,14,80,64,37,30.40,30.19,3,0,4,0.00
2013-12-14,46,40,36,46,36,26,98,85,63,30.20,29.71,7,0,9,0.63
2013-12-15,46,35,31,46,33,27,98,90,84,30.14,29.72,15,2,15,0.04
2013-12-16,46,36,28,35,31,27,94,82,64,30.22,30.08,10,1,13,0.00
2013-12-17,52,43,36,40,33,21,78,67,53,30.14,29.91,22,3,22,0.01
2013-12-18,43,33,26,26,23,20,80,65,47,30.29,30.14,12,1,14,0.00
2013-12-19,55,38,24,34,26,19,88,65,39,30.31,30.13,4,0,4,0.00
2013-12-20,61,46,34,40,35,28,89,66,41,30.16,30.03,3,0,3,0.00
2013-12-21,73,60,47,61,51,36,89,73,61,30.03,29.75,13,1,15,0.00
2013-12-22,71,59,52,61,55,51,100,89,68,29.99,29.74,17,1,19,0.36
2013-12-23,54,44,33,54,42,29,98,94,86,30.25,29.94,11,0,12,0.00
2013-12-24,33,29,20,30,24,14,92,79,60,30.46,30.24,19,1,19,0.00
2013-12-25,40,26,17,25,18,13,94,73,45,30.48,30.30,6,0,9,0.00
2013-12-26,44,33,26,30,25,20,83,71,54,30.38,30.30,9,0,10,0.00
2013-12-27,48,34,23,32,25,21,93,73,43,30.47,30.34,5,0,5,0.00
2013-12-28,44,34,24,37,29,21,96,81,61,30.40,30.04,3,0,3,0.00
2013-12-29,44,42,38,44,41,37,98,97,95,30.04,29.79,13,1,13,0.00
2013-12-30,41,38,33,40,35,31,96,91,87,30.17,29.97,10,1,11,0.00
2013-12-31,39,31,26,31,27,22,95,84,64,30.39,30.15,14,1,14,0.00
2014-1-1,48,32,24,34,26,22,93,80,47,30.35,30.08,4,0,4,0.00
2014-1-2,38,32,18,37,29,12,97,91,77,30.08,29.68,26,2,26,0.04